When you browse on this site, cookies collect data to enhance your experience and personalize the content and advertising you see.
Visit our Privacy Policy to learn more. By continuing to use the site, you agree to this use of cookies and data.
  • In Portugal
  • List of Countries
  • For 7 days
  • Water Temperature
  • Satellite Maps
  • Weather Map
  • Weather Widgets
  • user-avatar
    Login

    Hourly Weather Przybenice

    Today, 24 March, Sunday

    Time Temperature Precipitation Wind Pressure Humidity
    00:00 +9°C° 0 mm 2 mps 748 mmHg 67%
    01:00 +9°C° 0 mm 2 mps 748 mmHg 71%
    02:00 +9°C° 0 mm 3 mps 748 mmHg 76%
    03:00 +9°C° 0 mm 3 mps 748 mmHg 81%
    04:00 +9°C° 0 mm 3 mps 748 mmHg 86%
    05:00 +8°C° 0.1 mm 3 mps 748 mmHg 86%
    06:00 +7°C° 0.1 mm 4 mps 748 mmHg 85%
    07:00 +7°C° 0.1 mm 4 mps 748 mmHg 85%
    08:00 +8°C° 0 mm 3 mps 748 mmHg 79%
    09:00 +8°C° 0 mm 3 mps 748 mmHg 73%
    10:00 +9°C° 0 mm 2 mps 748 mmHg 67%
    11:00 +10°C° 0 mm 2 mps 747 mmHg 61%
    12:00 +12°C° 0 mm 2 mps 747 mmHg 55%
    13:00 +13°C° 0 mm 2 mps 746 mmHg 49%
    14:00 +13°C° 0 mm 2 mps 746 mmHg 47%
    15:00 +14°C° 0 mm 2 mps 745 mmHg 45%
    16:00 +14°C° 0 mm 2 mps 745 mmHg 44%
    17:00 +13°C° 0 mm 2 mps 744 mmHg 46%
    18:00 +12°C° 0 mm 1 mps 744 mmHg 47%
    19:00 +11°C° 0 mm 1 mps 744 mmHg 49%
    20:00 +10°C° 0.3 mm 1 mps 743 mmHg 52%
    21:00 +9°C° 0.3 mm 2 mps 743 mmHg 56%
    22:00 +8°C° 0.3 mm 2 mps 743 mmHg 59%
    23:00 +9°C° 0.3 mm 1 mps 742 mmHg 63%

    Tomorrow, 25 March, Monday

    Time Temperature Precipitation Wind Pressure Humidity
    00:00 +8°C° 0.3 mm 1 mps 742 mmHg 66%
    01:00 +8°C° 0.3 mm 1 mps 742 mmHg 70%
    02:00 +7°C° 0.2 mm 1 mps 741 mmHg 72%
    03:00 +7°C° 0.2 mm 1 mps 741 mmHg 74%
    04:00 +6°C° 0.2 mm 2 mps 740 mmHg 77%
    05:00 +6°C° 0.1 mm 2 mps 740 mmHg 76%
    06:00 +5°C° 0.1 mm 3 mps 740 mmHg 76%
    07:00 +5°C° 0.1 mm 3 mps 740 mmHg 75%
    08:00 +7°C° 0.1 mm 3 mps 740 mmHg 69%
    09:00 +7°C° 0.1 mm 4 mps 739 mmHg 62%
    10:00 +8°C° 0.1 mm 4 mps 739 mmHg 56%
    11:00 +9°C° 0.1 mm 5 mps 739 mmHg 51%
    12:00 +9°C° 0.1 mm 5 mps 738 mmHg 45%
    13:00 +10°C° 0.1 mm 6 mps 738 mmHg 40%
    14:00 +9°C° 0.1 mm 5 mps 738 mmHg 43%
    15:00 +9°C° 0.1 mm 5 mps 738 mmHg 46%
    16:00 +8°C° 0.1 mm 5 mps 738 mmHg 49%
    17:00 +7°C° 0.2 mm 5 mps 738 mmHg 54%
    18:00 +6°C° 0.2 mm 5 mps 739 mmHg 60%
    19:00 +5°C° 0.2 mm 5 mps 740 mmHg 65%
    20:00 +3°C° 0 mm 5 mps 740 mmHg 67%
    21:00 +3°C° 0 mm 5 mps 741 mmHg 69%
    22:00 +3°C° 0 mm 4 mps 742 mmHg 71%
    23:00 +3°C° 0 mm 4 mps 743 mmHg 73%

    Day after tomorrow, 26 March, Tuesday

    Time Temperature Precipitation Wind Pressure Humidity
    00:00 +1°C° 0 mm 4 mps 743 mmHg 75%
    01:00 +1°C° 0 mm 4 mps 744 mmHg 78%
    02:00 +1°C° 0 mm 4 mps 744 mmHg 80%
    03:00 0°C° 0 mm 5 mps 745 mmHg 81%
    04:00 0°C° 0 mm 5 mps 745 mmHg 83%
    05:00 0°C° 0 mm 5 mps 746 mmHg 82%
    06:00 +1°C° 0 mm 5 mps 746 mmHg 82%
    07:00 +1°C° 0 mm 4 mps 747 mmHg 81%
    08:00 +2°C° 0 mm 5 mps 747 mmHg 76%
    09:00 +3°C° 0 mm 5 mps 748 mmHg 70%
    10:00 +5°C° 0 mm 5 mps 748 mmHg 65%
    11:00 +5°C° 0 mm 5 mps 748 mmHg 62%
    12:00 +6°C° 0 mm 5 mps 748 mmHg 59%
    13:00 +5°C° 0 mm 6 mps 748 mmHg 56%
    14:00 +7°C° 0 mm 6 mps 747 mmHg 53%
    15:00 +7°C° 0 mm 6 mps 747 mmHg 50%
    16:00 +8°C° 0 mm 6 mps 747 mmHg 47%
    17:00 +7°C° 0 mm 5 mps 747 mmHg 50%
    18:00 +6°C° 0 mm 4 mps 748 mmHg 54%
    19:00 +7°C° 0 mm 3 mps 748 mmHg 57%
    20:00 +5°C° 0 mm 3 mps 748 mmHg 60%
    21:00 +5°C° 0 mm 4 mps 748 mmHg 64%
    22:00 +4°C° 0 mm 4 mps 749 mmHg 67%
    23:00 +4°C° 0 mm 3 mps 749 mmHg 68%

    27 March, Wednesday

    Time Temperature Precipitation Wind Pressure Humidity
    00:00 +4°C° 0 mm 3 mps 749 mmHg 70%
    01:00 +3°C° 0 mm 3 mps 749 mmHg 72%
    02:00 +3°C° 0 mm 3 mps 749 mmHg 76%
    03:00 +3°C° 0 mm 2 mps 749 mmHg 80%
    04:00 +2°C° 0 mm 2 mps 750 mmHg 84%
    05:00 +3°C° 0 mm 2 mps 750 mmHg 83%
    06:00 +3°C° 0 mm 2 mps 750 mmHg 83%
    07:00 +3°C° 0 mm 2 mps 750 mmHg 82%
    08:00 +4°C° 0 mm 2 mps 751 mmHg 73%
    09:00 +5°C° 0 mm 3 mps 751 mmHg 64%
    10:00 +7°C° 0 mm 3 mps 751 mmHg 55%
    11:00 +8°C° 0 mm 3 mps 751 mmHg 52%
    12:00 +8°C° 0 mm 3 mps 751 mmHg 49%
    13:00 +9°C° 0 mm 3 mps 751 mmHg 46%
    14:00 +9°C° 0 mm 3 mps 751 mmHg 47%
    15:00 +9°C° 0 mm 3 mps 750 mmHg 47%
    16:00 +9°C° 0 mm 3 mps 750 mmHg 47%
    17:00 +8°C° 0 mm 3 mps 750 mmHg 51%
    18:00 +7°C° 0 mm 2 mps 751 mmHg 56%
    19:00 +6°C° 0 mm 2 mps 751 mmHg 60%
    20:00 +6°C° 0 mm 2 mps 751 mmHg 64%
    21:00 +5°C° 0 mm 2 mps 751 mmHg 67%
    22:00 +5°C° 0 mm 2 mps 751 mmHg 71%
    23:00 +5°C° 0 mm 2 mps 751 mmHg 72%

    28 March, Thursday

    Time Temperature Precipitation Wind Pressure Humidity
    00:00 +4°C° 0 mm 2 mps 751 mmHg 74%
    01:00 +4°C° 0 mm 2 mps 751 mmHg 75%
    02:00 +4°C° 0 mm 2 mps 751 mmHg 78%
    03:00 +4°C° 0 mm 2 mps 751 mmHg 81%
    04:00 +3°C° 0 mm 2 mps 751 mmHg 83%
    05:00 +4°C° 0.1 mm 2 mps 752 mmHg 82%
    06:00 +5°C° 0.1 mm 2 mps 752 mmHg 81%
    07:00 +5°C° 0.1 mm 2 mps 752 mmHg 80%
    08:00 +6°C° 0.1 mm 2 mps 752 mmHg 78%
    09:00 +7°C° 0.1 mm 2 mps 752 mmHg 75%
    10:00 +8°C° 0.1 mm 2 mps 752 mmHg 72%
    11:00 +9°C° 0 mm 2 mps 752 mmHg 66%
    12:00 +10°C° 0 mm 2 mps 752 mmHg 61%
    13:00 +12°C° 0 mm 2 mps 752 mmHg 56%
    14:00 +12°C° 0.1 mm 2 mps 752 mmHg 56%
    15:00 +12°C° 0.1 mm 2 mps 752 mmHg 56%
    16:00 +12°C° 0.1 mm 2 mps 751 mmHg 56%
    17:00 +10°C° 0.1 mm 2 mps 752 mmHg 61%
    18:00 +9°C° 0.1 mm 2 mps 752 mmHg 66%
    19:00 +9°C° 0.1 mm 1 mps 752 mmHg 71%
    20:00 +9°C° 0 mm 1 mps 752 mmHg 74%
    21:00 +8°C° 0 mm 1 mps 752 mmHg 78%
    22:00 +7°C° 0 mm 1 mps 753 mmHg 81%
    23:00 +7°C° 0 mm 1 mps 753 mmHg 83%

    29 March, Friday

    Time Temperature Precipitation Wind Pressure Humidity
    00:00 +6°C° 0 mm 1 mps 753 mmHg 85%
    01:00 +5°C° 0 mm 0 mps 753 mmHg 86%
    02:00 +5°C° 0 mm 0 mps 753 mmHg 87%
    03:00 +4°C° 0 mm 0 mps 753 mmHg 87%
    04:00 +4°C° 0 mm 0 mps 753 mmHg 88%
    05:00 +5°C° 0 mm 0 mps 753 mmHg 85%
    06:00 +5°C° 0 mm 0 mps 753 mmHg 82%
    07:00 +6°C° 0 mm 0 mps 753 mmHg 80%
    08:00 +7°C° 0 mm 0 mps 753 mmHg 73%
    09:00 +9°C° 0 mm 0 mps 753 mmHg 66%
    10:00 +11°C° 0 mm 0 mps 753 mmHg 59%
    11:00 +13°C° 0 mm 1 mps 753 mmHg 55%
    12:00 +13°C° 0 mm 1 mps 753 mmHg 50%
    13:00 +14°C° 0 mm 1 mps 752 mmHg 46%
    14:00 +14°C° 0 mm 1 mps 752 mmHg 45%
    15:00 +14°C° 0 mm 1 mps 752 mmHg 44%
    16:00 +14°C° 0 mm 1 mps 751 mmHg 43%
    17:00 +13°C° 0 mm 1 mps 751 mmHg 47%
    18:00 +11°C° 0 mm 0 mps 751 mmHg 51%
    19:00 +9°C° 0 mm 0 mps 751 mmHg 55%
    20:00 +9°C° 0 mm 0 mps 752 mmHg 58%
    21:00 +8°C° 0 mm 0 mps 752 mmHg 60%
    22:00 +8°C° 0 mm 0 mps 752 mmHg 62%
    23:00 +7°C° 0 mm 0 mps 752 mmHg 64%
    Show more